This is the latest recevied weather packets stored in our database for station/object WS2Z. If no packets are shown the sender has not sent any weather packets the latest 1 day(s).
| Time | Temp. | Humidity | Pressure | Rain* | Wind** | Luminosity | Snow |
|---|---|---|---|---|---|---|---|
| 1778024485 | 26.67° C | 75% | 1014.6 hPa | 0 mm | 0.89 m/s, 258° | 11 W/m² | - |
| 1778024182 | 26.67° C | 74% | 1014.4 hPa | 0 mm | 1.34 m/s, 287° | 18 W/m² | - |
| 1778023880 | 26.67° C | 73% | 1014.5 hPa | 0 mm | 0.89 m/s, 314° | 20 W/m² | - |
| 1778023577 | 26.67° C | 73% | 1014.3 hPa | 0 mm | 0.89 m/s, 254° | 24 W/m² | - |
| 1778023275 | 26.67° C | 72% | 1014.2 hPa | 0 mm | 2.68 m/s, 287° | 30 W/m² | - |
| 1778022971 | 26.67° C | 71% | 1014.3 hPa | 0 mm | 1.34 m/s, 283° | 34 W/m² | - |
| 1778022670 | 26.67° C | 71% | 1014.2 hPa | 0 mm | 1.79 m/s, 265° | 37 W/m² | - |
| 1778022368 | 26.67° C | 72% | 1014.4 hPa | 0 mm | 2.68 m/s, 280° | 46 W/m² | - |
| 1778022063 | 27.22° C | 71% | 1014.1 hPa | 0 mm | 2.24 m/s, 256° | 57 W/m² | - |
| 1778021760 | 27.22° C | 70% | 1014.1 hPa | 0 mm | 1.79 m/s, 297° | 63 W/m² | - |
| 1778021456 | 27.22° C | 70% | 1014.2 hPa | 0 mm | 0.89 m/s, 266° | 69 W/m² | - |
| 1778021153 | 27.78° C | 69% | 1014.2 hPa | 0 mm | 1.79 m/s, 283° | 78 W/m² | - |
| 1778020851 | 27.78° C | 68% | 1014.1 hPa | 0 mm | 2.68 m/s, 271° | 97 W/m² | - |
| 1778020548 | 27.78° C | 68% | 1014 hPa | 0 mm | 1.79 m/s, 268° | 93 W/m² | - |
| 1778020244 | 28.33° C | 68% | 1014 hPa | 0 mm | 2.24 m/s, 281° | 108 W/m² | - |
| 1778019940 | 28.33° C | 67% | 1014.1 hPa | 0 mm | 1.79 m/s, 275° | 122 W/m² | - |
| 1778019637 | 28.33° C | 66% | 1013.8 hPa | 0 mm | 0.89 m/s, 291° | 154 W/m² | - |
| 1778019334 | 28.33° C | 66% | 1013.7 hPa | 0 mm | 2.24 m/s, 270° | 185 W/m² | - |
| 1778019030 | 28.89° C | 64% | 1013.9 hPa | 0 mm | 3.58 m/s, 283° | 193 W/m² | - |
| 1778018727 | 28.89° C | 65% | 1013.7 hPa | 0 mm | 1.79 m/s, 302° | 245 W/m² | - |
| 1778018425 | 28.89° C | 64% | 1013.9 hPa | 0 mm | 0.89 m/s, 245° | 270 W/m² | - |
| 1778018126 | 29.44° C | 63% | 1013.8 hPa | 0 mm | 1.34 m/s, 269° | 271 W/m² | - |
| 1778017821 | 28.89° C | 63% | 1013.8 hPa | 0 mm | 3.13 m/s, 284° | 238 W/m² | - |
| 1778017519 | 28.89° C | 64% | 1013.9 hPa | 0 mm | 1.79 m/s, 284° | 277 W/m² | - |
| 1778017215 | 28.89° C | 65% | 1013.8 hPa | 0 mm | 3.58 m/s, 272° | 300 W/m² | - |
* Rain latest hour (hover to see other rain measurements)
** Current wind speed in m/s (hover to see current wind gust speed)